TimeEET,TemperatureF,Dew PointF,Humidity,Sea Level PressureIn,VisibilityMPH,Wind Direction,Wind SpeedMPH,Gust SpeedMPH,PrecipitationIn,Events,Conditions,WindDirDegrees,DateUTC
12:50 AM,23.0,21.2,93,30.01,3.7,Variable,1.2,-,N/A,,Mostly Cloudy,0,2013-01-19 22:50:00
1:50 AM,24.8,21.2,86,29.98,3.7,ESE,5.8,-,N/A,,Mostly Cloudy,110,2013-01-19 23:50:00
2:00 AM,25,22,84,,4,ESE,5.8,,,,Mist,110,2013-01-20 00:00:00
2:50 AM,23.0,21.2,93,29.98,3.7,West,3.5,-,N/A,,Mostly Cloudy,280,2013-01-20 00:50:00
3:50 AM,23.0,21.2,93,29.98,3.7,SE,5.8,-,N/A,,Mostly Cloudy,130,2013-01-20 01:50:00
4:50 AM,24.8,21.2,86,29.95,3.7,North,5.8,-,N/A,,Scattered Clouds,360,2013-01-20 02:50:00
5:50 AM,28.4,24.8,86,29.98,3.7,SE,4.6,-,N/A,,Mostly Cloudy,140,2013-01-20 03:50:00
6:50 AM,33.8,23.0,65,29.98,4.3,SSE,9.2,-,N/A,,Mostly Cloudy,160,2013-01-20 04:50:00
7:50 AM,35.6,26.6,70,30.01,3.7,South,12.7,-,N/A,,Mostly Cloudy,180,2013-01-20 05:50:00
8:00 AM,35,26,58,,4,South,12.7,,,,Haze,180,2013-01-20 06:00:00
8:50 AM,37.4,26.6,65,30.01,3.7,ESE,4.6,-,N/A,,Mostly Cloudy,110,2013-01-20 06:50:00
9:50 AM,37.4,26.6,65,30.01,3.7,South,6.9,-,N/A,,Mostly Cloudy,170,2013-01-20 07:50:00
10:50 AM,39.2,28.4,65,29.98,3.7,North,8.1,-,N/A,,Mostly Cloudy,350,2013-01-20 08:50:00
11:50 AM,37.4,28.4,70,29.98,3.7,NNW,11.5,-,N/A,,Mostly Cloudy,340,2013-01-20 09:50:00
12:50 PM,37.4,32.0,81,29.98,3.7,NW,8.1,-,N/A,,Mostly Cloudy,310,2013-01-20 10:50:00
1:50 PM,37.4,30.2,75,29.98,3.7,West,12.7,-,N/A,,Mostly Cloudy,280,2013-01-20 11:50:00
2:00 PM,38,30,65,,4,West,12.7,,,,Mist,280,2013-01-20 12:00:00
2:50 PM,37.4,30.2,75,29.98,3.7,West,17.3,-,N/A,,Mostly Cloudy,270,2013-01-20 12:50:00
3:50 PM,37.4,30.2,75,30.01,5.0,WNW,13.8,-,N/A,,Mostly Cloudy,290,2013-01-20 13:50:00
4:50 PM,35.6,32.0,87,30.01,5.0,NW,6.9,-,N/A,,Mostly Cloudy,320,2013-01-20 14:50:00
5:50 PM,35.6,30.2,81,30.04,5.0,NNE,6.9,-,N/A,,Mostly Cloudy,30,2013-01-20 15:50:00
6:50 PM,33.8,28.4,81,30.04,3.7,SE,4.6,-,N/A,,Mostly Cloudy,140,2013-01-20 16:50:00
7:50 PM,30.2,28.4,93,30.06,3.7,NNE,3.5,-,N/A,,Mostly Cloudy,20,2013-01-20 17:50:00
8:00 PM,31,28,84,,4,NNE,3.5,,,,Mist,20,2013-01-20 18:00:00
8:50 PM,33.8,26.6,75,30.06,3.7,ENE,6.9,-,N/A,,Mostly Cloudy,70,2013-01-20 18:50:00
9:50 PM,32.0,24.8,75,30.06,3.7,East,6.9,-,N/A,,Mostly Cloudy,80,2013-01-20 19:50:00
10:50 PM,33.8,26.6,75,30.06,3.7,North,9.2,-,N/A,,Mostly Cloudy,10,2013-01-20 20:50:00
11:50 PM,33.8,26.6,75,30.06,3.7,NNE,9.2,-,N/A,,Mostly Cloudy,30,2013-01-20 21:50:00